Time,TemperatureF,DewpointF,PressureIn,WindDirection,WindDirectionDegrees,WindSpeedMPH,WindSpeedGustMPH,Humidity,HourlyPrecipIn,Conditions,Clouds,dailyrainin,SolarRadiationWatts/m^2,SoftwareType,DateUTC
2013-03-27 00:02:00,44.0,19.0,-100.00,NW,311,0.0,4.0,37,0.00,,,0.00,0.000000,,2013-03-27 07:02:00,
2013-03-27 00:12:00,44.0,19.0,-100.00,NW,311,0.0,4.0,37,0.00,,,0.00,0.000000,,2013-03-27 07:12:00,
2013-03-27 00:43:00,42.0,18.0,-100.00,NW,308,0.0,3.0,37,0.00,,,0.00,0.000000,,2013-03-27 07:43:00,
2013-03-27 00:53:00,42.0,18.0,-100.00,NW,308,0.0,3.0,37,0.00,,,0.00,0.000000,,2013-03-27 07:53:00,
2013-03-27 01:02:00,42.0,18.0,-100.00,NW,308,0.0,3.0,37,0.00,,,0.00,0.000000,,2013-03-27 08:02:00,
2013-03-27 01:12:00,42.0,18.0,-100.00,NW,308,0.0,3.0,37,0.00,,,0.00,0.000000,,2013-03-27 08:12:00,
2013-03-27 01:43:00,41.0,17.0,-100.00,NNW,348,0.0,3.0,37,0.00,,,-99.99,0.000000,,2013-03-27 08:43:00,
2013-03-27 01:52:00,41.0,17.0,-100.00,NNW,348,0.0,3.0,37,0.00,,,-99.99,0.000000,,2013-03-27 08:52:00,
2013-03-27 02:01:00,41.0,17.0,-100.00,NNW,348,0.0,3.0,37,0.00,,,-99.99,0.000000,,2013-03-27 09:01:00,
2013-03-27 02:11:00,41.0,17.0,-100.00,NNW,348,0.0,3.0,37,0.00,,,-99.99,0.000000,,2013-03-27 09:11:00,
2013-03-27 02:42:00,43.0,19.0,-100.00,WNW,296,0.0,4.0,37,0.00,,,0.00,0.000000,,2013-03-27 09:42:00,
2013-03-27 02:52:00,43.0,19.0,-100.00,WNW,296,0.0,4.0,37,0.00,,,0.00,0.000000,,2013-03-27 09:52:00,
2013-03-27 03:02:00,43.0,19.0,-100.00,WNW,296,0.0,4.0,37,0.00,,,0.00,0.000000,,2013-03-27 10:02:00,
2013-03-27 03:12:00,43.0,19.0,-100.00,WNW,296,0.0,4.0,37,0.00,,,0.00,0.000000,,2013-03-27 10:12:00,
2013-03-27 03:42:00,46.0,21.0,-100.00,West,281,0.0,6.0,37,0.00,,,0.00,0.000000,,2013-03-27 10:42:00,
2013-03-27 03:53:00,46.0,21.0,-100.00,West,281,0.0,6.0,37,0.00,,,0.00,0.000000,,2013-03-27 10:53:00,
2013-03-27 04:02:00,46.0,21.0,-100.00,West,281,0.0,6.0,37,0.00,,,0.00,0.000000,,2013-03-27 11:02:00,
2013-03-27 04:11:00,46.0,21.0,-100.00,West,281,0.0,6.0,37,0.00,,,0.00,0.000000,,2013-03-27 11:11:00,
2013-03-27 04:42:00,45.0,21.0,-100.00,WNW,300,0.0,5.0,38,0.00,,,0.00,0.000000,,2013-03-27 11:42:00,
2013-03-27 04:52:00,45.0,21.0,-100.00,WNW,300,0.0,5.0,38,0.00,,,0.00,0.000000,,2013-03-27 11:52:00,
2013-03-27 05:02:00,45.0,21.0,-100.00,WNW,300,0.0,5.0,38,0.00,,,0.00,0.000000,,2013-03-27 12:02:00,
2013-03-27 05:11:00,45.0,21.0,-100.00,WNW,300,0.0,5.0,38,0.00,,,0.00,0.000000,,2013-03-27 12:11:00,
2013-03-27 05:43:00,42.0,23.0,-100.00,NW,312,0.0,3.0,47,0.00,,,0.00,0.000000,,2013-03-27 12:43:00,
2013-03-27 05:52:00,42.0,23.0,-100.00,NW,312,0.0,3.0,47,0.00,,,0.00,0.000000,,2013-03-27 12:52:00,
2013-03-27 06:02:00,42.0,23.0,-100.00,NW,312,0.0,3.0,47,0.00,,,0.00,0.000000,,2013-03-27 13:02:00,
2013-03-27 06:12:00,42.0,23.0,-100.00,NW,312,0.0,3.0,47,0.00,,,0.00,0.000000,,2013-03-27 13:12:00,
2013-03-27 06:42:00,41.0,24.0,-100.00,NNW,334,0.0,4.0,51,0.00,,,0.00,0.000000,,2013-03-27 13:42:00,
2013-03-27 06:53:00,41.0,24.0,-100.00,NNW,334,0.0,4.0,51,0.00,,,0.00,0.000000,,2013-03-27 13:53:00,
2013-03-27 07:02:00,41.0,24.0,-100.00,NNW,334,0.0,4.0,51,0.00,,,0.00,0.000000,,2013-03-27 14:02:00,
2013-03-27 07:11:00,41.0,24.0,-100.00,NNW,334,0.0,4.0,51,0.00,,,0.00,0.000000,,2013-03-27 14:11:00,
2013-03-27 07:42:00,43.0,24.0,-100.00,WNW,296,0.0,0.0,46,0.00,,,0.00,10.000000,,2013-03-27 14:42:00,
2013-03-27 07:52:00,43.0,24.0,-100.00,WNW,296,0.0,0.0,46,0.00,,,0.00,10.000000,,2013-03-27 14:52:00,
2013-03-27 08:02:00,43.0,24.0,-100.00,WNW,296,0.0,0.0,46,0.00,,,0.00,10.000000,,2013-03-27 15:02:00,
2013-03-27 08:11:00,43.0,24.0,-100.00,WNW,296,0.0,0.0,46,0.00,,,0.00,10.000000,,2013-03-27 15:11:00,
2013-03-27 08:43:00,48.0,25.0,-100.00,WNW,289,0.0,0.0,40,0.00,,,0.00,94.000000,,2013-03-27 15:43:00,
2013-03-27 08:52:00,48.0,25.0,-100.00,WNW,289,0.0,0.0,40,0.00,,,0.00,94.000000,,2013-03-27 15:52:00,
2013-03-27 09:02:00,48.0,25.0,-100.00,WNW,289,0.0,0.0,40,0.00,,,0.00,94.000000,,2013-03-27 16:02:00,
2013-03-27 09:12:00,48.0,25.0,-100.00,WNW,289,0.0,0.0,40,0.00,,,0.00,94.000000,,2013-03-27 16:12:00,
2013-03-27 11:42:00,64.0,34.0,-100.00,WNW,287,4.0,10.0,32,-99.99,,,-99.99,830.000000,,2013-03-27 18:42:00,
2013-03-27 11:53:00,64.0,34.0,-100.00,WNW,287,4.0,10.0,32,-99.99,,,-99.99,830.000000,,2013-03-27 18:53:00,
2013-03-27 12:52:00,64.0,33.0,-100.00,West,271,6.0,11.0,31,0.00,,,0.00,1076.000000,,2013-03-27 19:52:00,
2013-03-27 13:02:00,64.0,33.0,-100.00,West,271,6.0,11.0,31,0.00,,,0.00,1076.000000,,2013-03-27 20:02:00,
2013-03-27 13:12:00,64.0,33.0,-100.00,West,271,6.0,11.0,31,0.00,,,0.00,1076.000000,,2013-03-27 20:12:00,
2013-03-27 13:43:00,66.0,37.0,-100.00,West,277,6.0,15.0,34,0.00,,,0.00,1125.000000,,2013-03-27 20:43:00,
2013-03-27 13:52:00,66.0,37.0,-100.00,West,277,6.0,15.0,34,0.00,,,0.00,1125.000000,,2013-03-27 20:52:00,
2013-03-27 14:02:00,66.0,37.0,-100.00,West,277,6.0,15.0,34,0.00,,,0.00,1125.000000,,2013-03-27 21:02:00,
2013-03-27 14:43:00,63.0,34.0,-100.00,West,278,8.0,15.0,34,0.00,,,0.00,1065.000000,,2013-03-27 21:43:00,
2013-03-27 14:52:00,63.0,34.0,-100.00,West,278,8.0,15.0,34,0.00,,,0.00,1065.000000,,2013-03-27 21:52:00,
2013-03-27 15:02:00,63.0,34.0,-100.00,West,278,8.0,15.0,34,0.00,,,0.00,1065.000000,,2013-03-27 22:02:00,
2013-03-27 15:12:00,63.0,34.0,-100.00,West,278,8.0,15.0,34,0.00,,,0.00,1065.000000,,2013-03-27 22:12:00,
2013-03-27 15:42:00,66.0,38.0,-100.00,WNW,286,6.0,15.0,35,0.00,,,0.00,999.000000,,2013-03-27 22:42:00,
2013-03-27 15:52:00,66.0,38.0,-100.00,WNW,286,6.0,15.0,35,0.00,,,0.00,999.000000,,2013-03-27 22:52:00,
2013-03-27 16:02:00,66.0,38.0,-100.00,WNW,286,6.0,15.0,35,0.00,,,0.00,999.000000,,2013-03-27 23:02:00,
2013-03-27 16:11:00,66.0,38.0,-100.00,WNW,286,6.0,15.0,35,0.00,,,0.00,999.000000,,2013-03-27 23:11:00,
2013-03-27 16:42:00,64.0,35.0,-100.00,WNW,285,7.0,19.0,34,0.00,,,0.00,823.000000,,2013-03-27 23:42:00,
2013-03-27 16:52:00,64.0,35.0,-100.00,WNW,285,7.0,19.0,34,0.00,,,0.00,823.000000,,2013-03-27 23:52:00,
2013-03-27 17:02:00,64.0,35.0,-100.00,WNW,285,7.0,19.0,34,0.00,,,0.00,823.000000,,2013-03-28 00:02:00,
2013-03-27 17:12:00,64.0,35.0,-100.00,WNW,285,7.0,19.0,34,0.00,,,0.00,823.000000,,2013-03-28 00:12:00,